Location: Unspecified
(0.0000°N, 0.0000°E)
Time: 03:26:59
(UTC+00:00)

deb r/b Ablestar - Pass Details

Date: 10 March 2026
Orbit: 937 x 1853 km, 67.2° (Epoch: 12 April)

Event Time Altitude Azimuth Distance (km) Brightness Sun altitude
Rises 19:30:03 0° 349° (NNW) 5,079 ? -19.9°
Reaches altitude 10° 19:33:14 10° 352° (N) 4,145 ? -20.7°
Maximum altitude 19:43:57 64° 72° (ENE) 2,003 ? -23.4°
Drops below altitude 10° 19:54:22 10° 151° (SSE) 4,047 ? -26.0°
Sets 19:57:25 0° 153° (SSE) 4,955 ? -26.7°
